Flag for Ireland Weather past 2 weeks in Dublin, Ireland

Now
48 °F

Passing clouds.


Feels Like: 41 °F
Forecast: N/A
Wind: 21 mph from Southwest

Location: Dublin Airport

Current Time: Mar 6, 2015 at 10:14:55 PM

Latest Report: Mar 6, 2015 at 9:30 PM


Visibility: N/A

Pressure: 30.01 "Hg

Humidity: 76%

Dew point: 41 °F

Location of DublinLocation

Historic Weather in Dublin — Graph

°F

Dublin temperature yesterday

Maximum temperature yesterday: 52 °F (at 3:30 PM)
Minimum temperature yesterday: 45 °F (at 12:00 AM)
Average temperature yesterday: 47 °F

Past Weeks' High & Low Weather Summary

 TemperatureHumidityPressure
High54 °F (Feb 26, 1:30 AM)100% (Feb 21, 6:00 AM)30.60 "Hg (Feb 21, 6:00 AM)
Low32 °F (Feb 21, 6:00 AM)54% (Mar 4, 2:00 PM)28.88 "Hg (Feb 23, 3:00 PM)
Average41 °F82%29.75 "Hg
* Reported Feb 19 8:00 PM — Mar 6 8:30 PM, Dublin, Weather by CustomWeather, © 2015

Note: Actual official high and low records may vary slightly from our data, if they occured in-between our weather recording intervals... More about our weather records

Advertising

Dublin weather history for previous 24 hours

 ConditionsComfort  
Time TempWeatherWind HumidityBarometerVisibility
8:30 PM
Fri, Mar 6
48 °FPartly cloudy.26 mph71%30.01 "HgN/A
8:00 PM48 °FPartly cloudy.25 mph71%30.01 "HgN/A
7:30 PM48 °FPartly cloudy.23 mph71%30.04 "HgN/A
7:00 PM48 °FPartly cloudy.22 mph71%30.04 "HgN/A
6:30 PM48 °FPartly cloudy.24 mph71%30.07 "HgN/A
6:00 PM48 °FBroken clouds.21 mph71%30.07 "HgN/A
5:30 PM48 °FBroken clouds.24 mph71%30.09 "HgN/A
5:00 PM50 °FBroken clouds.26 mph67%30.09 "HgN/A
4:30 PM50 °FPartly sunny.30 mph67%30.09 "HgN/A
4:00 PM50 °FPartly sunny.33 mph67%30.09 "HgN/A
3:30 PM52 °FPartly sunny.25 mph62%30.09 "HgN/A
3:00 PM52 °FPartly sunny.28 mph62%30.12 "HgN/A
2:30 PM52 °FPartly sunny.29 mph62%30.12 "HgN/A
2:00 PM54 °FBroken clouds.29 mph58%30.12 "HgN/A
1:30 PM52 °FBroken clouds.30 mph67%30.15 "HgN/A
1:00 PM50 °FBroken clouds.29 mph67%30.18 "HgN/A
12:30 PM50 °FPartly sunny.29 mph71%30.18 "HgN/A
12:00 PM50 °FPartly sunny.29 mph67%30.21 "HgN/A
11:30 AM50 °FBroken clouds.28 mph67%30.24 "HgN/A
11:00 AM50 °FPartly sunny.26 mph67%30.24 "HgN/A
10:30 AM48 °FBroken clouds.26 mph71%30.24 "HgN/A
10:00 AM48 °FBroken clouds.22 mph71%30.27 "HgN/A
9:30 AM48 °FBroken clouds.21 mph71%30.27 "HgN/A
9:00 AM48 °FScattered clouds.23 mph71%30.27 "HgN/A
8:30 AM46 °FBroken clouds.18 mph71%30.30 "HgN/A
8:00 AM46 °FPartly sunny.16 mph76%30.30 "HgN/A
7:30 AM46 °FPartly sunny.17 mph71%30.33 "HgN/A
7:00 AM46 °FPassing clouds.17 mph71%30.33 "HgN/A
6:30 AM46 °FPassing clouds.15 mph71%30.36 "HgN/A
6:00 AM46 °FPassing clouds.16 mph71%30.36 "HgN/A
5:30 AM46 °FPassing clouds.17 mph71%30.36 "HgN/A
5:00 AM46 °FPassing clouds.15 mph71%30.36 "HgN/A
4:30 AM46 °FPassing clouds.15 mph76%30.36 "HgN/A
4:00 AM46 °FPassing clouds.13 mph76%30.39 "HgN/A
3:30 AM46 °FPassing clouds.13 mph71%30.39 "HgN/A
3:00 AM46 °FPassing clouds.14 mph71%30.39 "HgN/A
2:30 AM46 °FPassing clouds.14 mph71%30.42 "HgN/A
2:00 AM46 °FPassing clouds.18 mph71%30.42 "HgN/A
1:30 AM46 °FPassing clouds.16 mph71%30.42 "HgN/A
1:00 AM46 °FPartly cloudy.16 mph76%30.42 "HgN/A
12:30 AM46 °FPassing clouds.15 mph76%30.45 "HgN/A
12:00 AM46 °FPassing clouds.16 mph71%30.45 "HgN/A
11:30 PM
Thu, Mar 5
46 °FPassing clouds.16 mph76%30.45 "HgN/A
11:00 PM46 °FPassing clouds.12 mph76%30.48 "HgN/A
10:30 PM46 °FPassing clouds.13 mph76%30.45 "HgN/A
10:00 PM46 °FPassing clouds.16 mph76%30.45 "HgN/A
Weather by CustomWeather, © 2015

See weather overviewHow to use our weather pages